Radiation Dose at Monitoring Post of Fukushima Daini Nuclear Power Station
Date,Time,MP-1(microSv/h),MP-2(microSv/h),MP-3(microSv/h),MP-4(microSv/h),MP-5(microSv/h),MP-6(microSv/h),MP-7(microSv/h),Wind Direction,Wind Velocity(m/s),Rain
2023/07/08,00:00,0.149,0.137,0.216,0.205,0.213,0.118,0.076,south,6.3,No
2023/07/08,00:10,0.147,0.135,0.213,0.206,0.211,0.118,0.076,south,7.3,No
2023/07/08,00:20,0.147,0.137,0.214,0.203,0.211,0.117,0.076,south,6.3,No
2023/07/08,00:30,0.148,0.138,0.216,0.204,0.214,0.118,0.076,south,6.6,No
2023/07/08,00:40,0.147,0.136,0.215,0.206,0.213,0.118,0.075,south,5.8,No
2023/07/08,00:50,0.146,0.136,0.213,0.205,0.211,0.118,0.075,south,5.7,No
2023/07/08,01:00,0.147,0.137,0.215,0.204,0.210,0.117,0.077,south,5.7,No
2023/07/08,01:10,0.148,0.137,0.215,0.205,0.214,0.116,0.076,south,6.3,No
2023/07/08,01:20,0.147,0.135,0.214,0.206,0.211,0.117,0.076,south,6.2,Yes
2023/07/08,01:30,0.147,0.137,0.212,0.206,0.211,0.118,0.076,south,6.0,Yes
2023/07/08,01:40,0.149,0.138,0.216,0.204,0.212,0.116,0.077,south,4.9,No
2023/07/08,01:50,0.148,0.137,0.215,0.207,0.215,0.118,0.076,south,3.8,No
2023/07/08,02:00,0.146,0.137,0.213,0.205,0.213,0.119,0.076,south,4.3,No
2023/07/08,02:10,0.148,0.137,0.216,0.205,0.211,0.118,0.077,south,4.4,No
2023/07/08,02:20,0.149,0.136,0.216,0.205,0.211,0.117,0.076,south,4.8,No
2023/07/08,02:30,0.148,0.138,0.214,0.207,0.214,0.118,0.075,south,4.9,No
2023/07/08,02:40,0.146,0.137,0.214,0.205,0.212,0.118,0.077,south,4.7,Yes
2023/07/08,02:50,0.149,0.136,0.217,0.204,0.210,0.117,0.077,south,4.6,Yes
2023/07/08,03:00,0.149,0.136,0.215,0.206,0.213,0.118,0.075,south,3.9,Yes
2023/07/08,03:10,0.148,0.138,0.214,0.206,0.214,0.119,0.076,south,4.9,No
2023/07/08,03:20,0.149,0.136,0.217,0.204,0.212,0.118,0.077,south,5.3,No
2023/07/08,03:30,0.149,0.137,0.215,0.207,0.211,0.116,0.077,south,4.6,No
2023/07/08,03:40,0.148,0.137,0.213,0.206,0.214,0.118,0.075,south-southeast,3.8,No
2023/07/08,03:50,0.147,0.136,0.216,0.205,0.212,0.117,0.077,south-southeast,5.2,No
2023/07/08,04:00,0.148,0.136,0.215,0.206,0.210,0.116,0.075,south,5.2,No
2023/07/08,04:10,0.148,0.138,0.213,0.208,0.211,0.118,0.076,south,4.2,No
2023/07/08,04:20,0.147,0.137,0.215,0.205,0.214,0.119,0.077,south,4.6,No
2023/07/08,04:30,0.148,0.137,0.215,0.205,0.211,0.118,0.077,south,3.9,No
2023/07/08,04:40,0.149,0.137,0.214,0.207,0.211,0.117,0.076,south,4.5,No
2023/07/08,04:50,0.147,0.137,0.213,0.205,0.214,0.118,0.076,south,5.7,No
2023/07/08,05:00,0.148,0.136,0.216,0.204,0.213,0.117,0.077,south,6.6,Yes
2023/07/08,05:10,0.150,0.137,0.215,0.207,0.210,0.118,0.076,south,5.4,Yes
2023/07/08,05:20,0.149,0.138,0.214,0.207,0.214,0.120,0.078,south,4.2,Yes
2023/07/08,05:30,0.148,0.138,0.218,0.206,0.213,0.121,0.079,south,3.0,Yes
2023/07/08,05:40,0.150,0.139,0.217,0.207,0.211,0.121,0.078,west-southwest,3.8,No
2023/07/08,05:50,0.150,0.138,0.215,0.207,0.214,0.121,0.079,southwest,4.4,No
2023/07/08,06:00,0.149,0.138,0.218,0.206,0.215,0.120,0.079,southwest,2.8,Yes
2023/07/08,06:10,0.149,0.138,0.217,0.207,0.213,0.120,0.078,south,4.9,Yes
2023/07/08,06:20,0.150,0.138,0.214,0.209,0.211,0.118,0.078,south-southwest,4.0,Yes
2023/07/08,06:30,0.148,0.138,0.218,0.206,0.216,0.120,0.078,southwest,2.8,Yes
2023/07/08,06:40,0.149,0.139,0.218,0.207,0.215,0.120,0.079,south-southwest,2.1,Yes
2023/07/08,06:50,0.151,0.140,0.217,0.210,0.213,0.119,0.079,southwest,1.5,Yes
2023/07/08,07:00,0.151,0.139,0.217,0.208,0.215,0.120,0.079,south-southwest,1.5,Yes
2023/07/08,07:10,0.149,0.139,0.219,0.206,0.215,0.122,0.080,south,1.3,Yes
2023/07/08,07:20,0.151,0.141,0.218,0.210,0.214,0.123,0.080,south-southwest,2.2,Yes
2023/07/08,07:30,0.152,0.139,0.217,0.209,0.214,0.121,0.080,south-southeast,1.7,Yes
2023/07/08,07:40,0.150,0.138,0.219,0.208,0.216,0.122,0.080,south-southeast,3.7,Yes
2023/07/08,07:50,0.149,0.139,0.218,0.207,0.212,0.121,0.078,south-southeast,5.7,Yes
2023/07/08,08:00,0.149,0.137,0.214,0.208,0.211,0.120,0.078,south,4.3,No
2023/07/08,08:10,0.150,0.136,0.217,0.206,0.213,0.120,0.078,south-southwest,3.9,No
2023/07/08,08:20,0.148,0.138,0.218,0.205,0.215,0.120,0.078,south,3.9,No
2023/07/08,08:30,0.148,0.139,0.214,0.206,0.213,0.120,0.077,south-southwest,3.7,Yes
2023/07/08,08:40,0.150,0.137,0.215,0.207,0.211,0.119,0.077,south-southwest,2.6,Yes
2023/07/08,08:50,0.150,0.137,0.217,0.206,0.212,0.118,0.077,south-southwest,3.9,Yes
2023/07/08,09:00,0.148,0.137,0.216,0.204,0.213,0.119,0.077,south,4.1,Yes
2023/07/08,09:10,0.147,0.137,0.215,0.205,0.211,0.118,0.077,south,2.6,Yes
2023/07/08,09:20,-,-,-,-,-,-,-,-,-,-
2023/07/08,09:30,0.149,0.136,0.215,0.205,0.210,0.118,0.077,south,2.9,No
2023/07/08,09:40,0.147,0.136,0.215,0.202,0.212,0.117,0.076,south-southwest,1.8,Yes
2023/07/08,09:50,0.147,0.136,0.214,0.204,0.213,0.118,0.075,south,0.6,Yes
2023/07/08,10:00,0.148,0.137,0.213,0.206,0.210,0.117,0.076,-,CALM,Yes
2023/07/08,10:10,0.148,0.136,0.212,0.205,0.211,0.117,0.076,southwest,0.6,Yes
2023/07/08,10:20,0.148,0.134,0.211,0.204,0.209,0.117,0.076,south,1.0,Yes
2023/07/08,10:30,0.148,0.135,0.213,0.203,0.208,0.117,0.076,south,1.8,No
2023/07/08,10:40,0.146,0.135,0.212,0.202,0.209,0.118,0.077,south-southeast,1.8,No
2023/07/08,10:50,0.145,0.135,0.213,0.202,0.209,0.117,0.075,south-southeast,1.2,No
2023/07/08,11:00,0.146,0.135,0.217,0.203,0.209,0.117,0.075,southeast,1.3,No
2023/07/08,11:10,0.146,0.134,0.215,0.201,0.210,0.117,0.075,east-southeast,0.7,No
2023/07/08,11:20,0.148,0.135,0.214,0.202,0.209,0.116,0.075,south-southeast,1.0,No
2023/07/08,11:30,0.148,0.137,0.213,0.201,0.209,0.118,0.076,east,1.0,No
2023/07/08,11:40,0.147,0.137,0.213,0.204,0.211,0.117,0.076,northeast,1.0,No
2023/07/08,11:50,0.146,0.136,0.213,0.206,0.213,0.117,0.076,north-northeast,2.0,No
2023/07/08,12:00,0.149,0.136,0.215,0.205,0.213,0.117,0.075,north,6.3,No
2023/07/08,12:10,0.149,0.137,0.217,0.204,0.212,0.118,0.075,north,6.4,No
2023/07/08,12:20,0.147,0.137,0.214,0.203,0.210,0.118,0.076,north,4.5,No
2023/07/08,12:30,0.147,0.137,0.213,0.205,0.212,0.118,0.076,north,4.6,No
2023/07/08,12:40,0.148,0.137,0.216,0.206,0.212,0.117,0.075,north-northwest,3.5,No
2023/07/08,12:50,0.148,0.137,0.215,0.205,0.211,0.118,0.076,north,3.3,No
2023/07/08,13:00,0.147,0.136,0.214,0.203,0.208,0.118,0.076,north,3.9,No
2023/07/08,13:10,0.149,0.135,0.213,0.204,0.212,0.118,0.076,north-northwest,4.0,No
2023/07/08,13:20,0.149,0.137,0.214,0.207,0.213,0.117,0.075,north-northwest,4.5,No
2023/07/08,13:30,0.147,0.137,0.216,0.206,0.211,0.116,0.076,north-northwest,4.7,No
2023/07/08,13:40,0.147,0.136,0.214,0.204,0.210,0.117,0.076,north,4.3,No
2023/07/08,13:50,0.148,0.136,0.213,0.203,0.210,0.118,0.076,north,3.2,No
2023/07/08,14:00,0.147,0.135,0.212,0.202,0.211,0.117,0.075,north,3.6,No
2023/07/08,14:10,0.146,0.138,0.215,0.206,0.212,0.116,0.075,north,4.9,No
2023/07/08,14:20,0.148,0.136,0.216,0.206,0.212,0.118,0.077,north,4.5,No
2023/07/08,14:30,0.148,0.135,0.214,0.204,0.210,0.117,0.076,north,5.1,No
2023/07/08,14:40,0.147,0.136,0.212,0.203,0.210,0.117,0.075,north,6.1,No
2023/07/08,14:50,0.147,0.137,0.214,0.202,0.213,0.118,0.075,north,6.5,No
2023/07/08,15:00,0.149,0.136,0.215,0.206,0.212,0.117,0.076,north,6.5,No
2023/07/08,15:10,0.148,0.136,0.214,0.206,0.210,0.117,0.075,north,5.7,No
2023/07/08,15:20,0.147,0.136,0.213,0.204,0.209,0.117,0.075,north,6.3,No
2023/07/08,15:30,0.149,0.136,0.215,0.203,0.212,0.116,0.076,north,5.0,No
2023/07/08,15:40,0.148,0.135,0.216,0.206,0.212,0.117,0.075,north,5.1,No
2023/07/08,15:50,0.147,0.136,0.213,0.205,0.210,0.118,0.075,north,3.9,No
2023/07/08,16:00,0.149,0.136,0.213,0.204,0.210,0.117,0.076,north-northwest,4.1,No
2023/07/08,16:10,0.148,0.136,0.216,0.204,0.212,0.117,0.076,north-northwest,4.1,No
2023/07/08,16:20,0.146,0.135,0.216,0.207,0.212,0.117,0.076,north-northwest,4.4,No
2023/07/08,16:30,0.148,0.135,0.214,0.206,0.209,0.118,0.075,north,4.1,No
2023/07/08,16:40,0.149,0.137,0.214,0.202,0.209,0.117,0.075,north,3.7,No
2023/07/08,16:50,0.148,0.136,0.216,0.203,0.213,0.116,0.075,north,4.0,No
2023/07/08,17:00,0.147,0.136,0.215,0.207,0.211,0.117,0.076,north,3.7,No
2023/07/08,17:10,0.149,0.136,0.213,0.205,0.210,0.118,0.076,north,4.3,No
2023/07/08,17:20,0.147,0.137,0.215,0.203,0.209,0.117,0.076,north,4.1,No
2023/07/08,17:30,0.147,0.135,0.216,0.203,0.213,0.117,0.075,north,3.3,No
2023/07/08,17:40,0.148,0.136,0.214,0.206,0.213,0.118,0.076,north,3.4,No
2023/07/08,17:50,0.149,0.136,0.213,0.204,0.209,0.117,0.075,north,3.9,No
2023/07/08,18:00,0.146,0.135,0.216,0.205,0.211,0.117,0.076,north,4.1,No
2023/07/08,18:10,0.148,0.137,0.214,0.206,0.213,0.116,0.075,north,3.7,No
2023/07/08,18:20,0.149,0.136,0.213,0.205,0.210,0.117,0.075,north,4.2,No
2023/07/08,18:30,0.147,0.136,0.217,0.203,0.211,0.117,0.076,north,3.8,No
2023/07/08,18:40,0.149,0.137,0.214,0.206,0.212,0.116,0.076,north,3.2,No
2023/07/08,18:50,0.148,0.136,0.213,0.206,0.211,0.117,0.076,north,3.7,No
2023/07/08,19:00,0.147,0.136,0.216,0.204,0.211,0.117,0.076,north,3.5,No
2023/07/08,19:10,0.149,0.137,0.214,0.206,0.213,0.117,0.076,north,3.0,No
2023/07/08,19:20,0.148,0.136,0.215,0.205,0.211,0.117,0.076,north,3.1,No
2023/07/08,19:30,0.147,0.136,0.216,0.204,0.212,0.117,0.076,north,3.0,No
2023/07/08,19:40,0.149,0.137,0.215,0.207,0.212,0.116,0.076,north,2.9,No
2023/07/08,19:50,0.148,0.135,0.216,0.205,0.210,0.117,0.076,north,1.7,No
2023/07/08,20:00,0.148,0.136,0.215,0.203,0.211,0.117,0.075,north,2.2,No
2023/07/08,20:10,0.149,0.136,0.213,0.205,0.213,0.116,0.075,north-northwest,2.5,No
2023/07/08,20:20,0.147,0.136,0.216,0.205,0.209,0.117,0.076,north,2.1,No
2023/07/08,20:30,0.147,0.136,0.214,0.204,0.213,0.118,0.076,north,1.2,No
2023/07/08,20:40,0.149,0.136,0.213,0.205,0.212,0.116,0.076,north-northwest,0.8,No
2023/07/08,20:50,0.146,0.136,0.216,0.204,0.210,0.117,0.076,-,CALM,No
2023/07/08,21:00,0.148,0.137,0.214,0.205,0.212,0.117,0.076,north-northeast,0.7,No
2023/07/08,21:10,0.148,0.136,0.215,0.206,0.212,0.116,0.075,north-northeast,0.7,Yes
2023/07/08,21:20,0.147,0.136,0.215,0.203,0.211,0.118,0.076,north-northeast,0.6,Yes
2023/07/08,21:30,0.150,0.136,0.213,0.207,0.212,0.118,0.076,-,CALM,Yes
2023/07/08,21:40,0.149,0.135,0.216,0.206,0.211,0.117,0.076,-,CALM,Yes
2023/07/08,21:50,0.147,0.137,0.215,0.205,0.209,0.118,0.076,-,CALM,Yes
2023/07/08,22:00,0.150,0.137,0.215,0.207,0.213,0.118,0.076,-,CALM,Yes
2023/07/08,22:10,0.149,0.137,0.219,0.207,0.214,0.119,0.078,-,CALM,Yes
2023/07/08,22:20,0.150,0.139,0.217,0.207,0.212,0.121,0.080,-,CALM,Yes
2023/07/08,22:30,0.152,0.139,0.218,0.210,0.216,0.120,0.079,-,CALM,Yes
2023/07/08,22:40,0.150,0.139,0.218,0.205,0.214,0.120,0.078,-,CALM,Yes
2023/07/08,22:50,0.150,0.139,0.216,0.207,0.213,0.120,0.078,-,CALM,Yes
2023/07/08,23:00,0.151,0.138,0.217,0.208,0.215,0.121,0.078,east-southeast,0.7,Yes
2023/07/08,23:10,0.150,0.140,0.216,0.208,0.214,0.122,0.081,-,CALM,Yes
2023/07/08,23:20,0.152,0.140,0.220,0.210,0.216,0.124,0.082,-,CALM,Yes
2023/07/08,23:30,0.152,0.142,0.220,0.209,0.216,0.123,0.082,southeast,1.7,Yes
2023/07/08,23:40,0.153,0.141,0.220,0.210,0.215,0.124,0.082,east-southeast,1.9,Yes
2023/07/08,23:50,0.155,0.142,0.221,0.212,0.218,0.125,0.083,south,1.3,Yes
